| time (UTC) | temp F | wind direction | speed MPH | gust MPH | rain 1hr in | rain 24hr in | rain mn in | humidity % | barometer mb |
| 20260506201528 | 61 | 217 | 1.0 | 5.0 | 0.00 | 0.26 | 0.26 | 92 | 1006.4 |
| 20260506200011 | 61 | 239 | 2.0 | 6.0 | 0.00 | 0.26 | 0.26 | 92 | 1006.4 |
| 20260506194514 | 61 | 246 | 4.0 | 7.0 | 0.00 | 0.26 | 0.26 | 91 | 1006.6 |
| 20260506193019 | 61 | 237 | 3.0 | 7.0 | 0.01 | 0.26 | 0.26 | 93 | 1006.6 |
| 20260506191521 | 60 | 246 | 3.0 | 7.0 | 0.02 | 0.26 | 0.26 | 93 | 1006.8 |
| 20260506190025 | 60 | 173 | 3.0 | 9.0 | 0.03 | 0.26 | 0.26 | 93 | 1007.0 |
| 20260506184519 | 60 | 224 | 4.0 | 8.0 | 0.03 | 0.26 | 0.26 | 93 | 1007.2 |
| 20260506183018 | 60 | 219 | 5.0 | 11.0 | 0.03 | 0.25 | 0.25 | 93 | 1007.4 |
| 20260506181519 | 60 | 180 | 5.0 | 12.0 | 0.04 | 0.24 | 0.24 | 92 | 1007.5 |
| 20260506180008 | 60 | 218 | 5.0 | 10.0 | 0.04 | 0.23 | 0.23 | 92 | 1007.5 |
| 20260506174512 | 60 | 209 | 5.0 | 13.0 | 0.04 | 0.23 | 0.23 | 92 | 1007.5 |
| 20260506173013 | 60 | 227 | 6.0 | 12.0 | 0.03 | 0.22 | 0.22 | 92 | 1007.3 |
| 20260506171521 | 60 | 221 | 2.0 | 12.0 | 0.02 | 0.20 | 0.20 | 92 | 1007.6 |
| 20260506170022 | 60 | 223 | 5.0 | 18.0 | 0.02 | 0.19 | 0.19 | 91 | 1007.8 |
| 20260506164508 | 60 | 248 | 5.0 | 13.0 | 0.04 | 0.19 | 0.19 | 92 | 1007.6 |
| 20260506163014 | 60 | 237 | 8.0 | 18.0 | 0.06 | 0.19 | 0.19 | 92 | 1007.5 |
| 20260506161515 | 60 | 241 | 5.0 | 14.0 | 0.08 | 0.18 | 0.18 | 91 | 1007.2 |
| 20260506160019 | 60 | 236 | 8.0 | 13.0 | 0.09 | 0.17 | 0.17 | 91 | 1008.1 |
| 20260506154506 | 60 | 254 | 6.0 | 13.0 | 0.09 | 0.15 | 0.15 | 91 | 1008.5 |
| 20260506153011 | 60 | 237 | 4.0 | 13.0 | 0.09 | 0.13 | 0.13 | 91 | 1008.8 |
| 20260506151516 | 60 | 267 | 3.0 | 14.0 | 0.09 | 0.10 | 0.10 | 90 | 1008.9 |
| 20260506144536 | 61 | 277 | 3.0 | 9.0 | 0.06 | 0.06 | 0.06 | 89 | 1008.7 |
| 20260506143008 | 61 | 167 | 3.0 | 9.0 | 0.04 | 0.04 | 0.04 | 87 | 1008.6 |
| 20260506141512 | 62 | 190 | 4.0 | 12.0 | 0.01 | 0.01 | 0.01 | 84 | 1008.8 |
| 20260506133020 | 63 | 238 | 4.0 | 12.0 | 0.00 | 0.00 | 0.00 | 80 | 1008.8 |
| 20260506131507 | 63 | 238 | 4.0 | 10.0 | 0.00 | 0.00 | 0.00 | 80 | 1008.8 |
| 20260506124521 | 64 | 232 | 4.0 | 10.0 | 0.00 | 0.00 | 0.00 | 76 | 1008.9 |
| 20260506123035 | 65 | 190 | 7.0 | 13.0 | 0.00 | 0.00 | 0.00 | 74 | 1008.8 |
| 20260506121510 | 65 | 211 | 4.0 | 14.0 | 0.00 | 0.00 | 0.00 | 74 | 1008.4 |
| 20260506120022 | 64 | 244 | 6.0 | 14.0 | 0.00 | 0.00 | 0.00 | 74 | 1008.4 |
| 20260506113028 | 64 | 226 | 7.0 | 16.0 | 0.00 | 0.00 | 0.00 | 74 | 1008.2 |
| 20260506111525 | 65 | 250 | 5.0 | 16.0 | 0.00 | 0.00 | 0.00 | 73 | 1008.3 |
| 20260506110010 | 65 | 231 | 6.0 | 17.0 | 0.00 | 0.00 | 0.00 | 73 | 1008.2 |
| 20260506101529 | 65 | 241 | 5.0 | 12.0 | 0.00 | 0.00 | 0.00 | 73 | 1007.8 |
| 20260506100028 | 65 | 207 | 5.0 | 16.0 | 0.00 | 0.00 | 0.00 | 73 | 1007.9 |
| 20260506091521 | 65 | 237 | 4.0 | 14.0 | 0.00 | 0.00 | 0.00 | 72 | 1007.8 |
| 20260506090012 | 65 | 228 | 4.0 | 10.0 | 0.00 | 0.01 | 0.00 | 71 | 1007.9 |
| 20260506084511 | 65 | 237 | 6.0 | 13.0 | 0.00 | 0.01 | 0.00 | 71 | 1008.1 |
| 20260506083028 | 65 | 243 | 7.0 | 14.0 | 0.00 | 0.01 | 0.00 | 70 | 1008.1 |
| 20260506073018 | 65 | 259 | 4.0 | 9.0 | 0.00 | 0.01 | 0.00 | 67 | 1008.3 |
| 20260506061518 | 66 | 234 | 3.0 | 8.0 | 0.00 | 0.01 | 0.00 | 63 | 1009.0 |
| 20260506044538 | 67 | 265 | 3.0 | 7.0 | 0.00 | 0.01 | 0.00 | 60 | 1009.6 |
| 20260506043010 | 67 | 218 | 2.0 | 5.0 | 0.00 | 0.01 | 0.00 | 59 | 1009.6 |
| 20260506041514 | 67 | 253 | 3.0 | 7.0 | 0.00 | 0.01 | 0.00 | 58 | 1009.6 |
| 20260506034522 | 68 | 189 | 3.0 | 8.0 | 0.00 | 0.01 | 0.01 | 56 | 1009.5 |
| 20260506033028 | 68 | 207 | 3.0 | 9.0 | 0.00 | 0.01 | 0.01 | 55 | 1009.4 |
| 20260506031523 | 69 | 231 | 3.0 | 9.0 | 0.00 | 0.01 | 0.01 | 53 | 1009.3 |
| 20260506030018 | 69 | 209 | 3.0 | 9.0 | 0.00 | 0.01 | 0.01 | 53 | 1009.3 |
| 20260506024529 | 70 | 210 | 3.0 | 5.0 | 0.00 | 0.01 | 0.01 | 51 | 1009.3 |
| 20260506023023 | 71 | 244 | 3.0 | 9.0 | 0.00 | 0.01 | 0.01 | 49 | 1009.4 |
| 20260506021526 | 71 | 219 | 3.0 | 12.0 | 0.00 | 0.01 | 0.01 | 48 | 1009.4 |
| 20260506020016 | 71 | 242 | 4.0 | 8.0 | 0.00 | 0.01 | 0.01 | 47 | 1009.3 |
| 20260506014519 | 72 | 257 | 3.0 | 12.0 | 0.00 | 0.01 | 0.01 | 46 | 1009.3 |
| 20260506013025 | 73 | 218 | 4.0 | 13.0 | 0.00 | 0.01 | 0.01 | 45 | 1009.2 |
| 20260506011527 | 73 | 223 | 2.0 | 12.0 | 0.00 | 0.01 | 0.01 | 44 | 1008.9 |
| 20260506010033 | 74 | 215 | 4.0 | 9.0 | 0.00 | 0.01 | 0.01 | 43 | 1008.6 |
| 20260506004522 | 74 | 223 | 6.0 | 14.0 | 0.00 | 0.01 | 0.01 | 43 | 1008.5 |
| 20260506003023 | 74 | 238 | 3.0 | 8.0 | 0.00 | 0.01 | 0.01 | 43 | 1008.2 |
| 20260506001526 | 74 | 233 | 2.0 | 7.0 | 0.00 | 0.01 | 0.01 | 42 | 1008.1 |
| 20260506000013 | 75 | 237 | 4.0 | 14.0 | 0.00 | 0.01 | 0.01 | 41 | 1008.1 |
| 20260505233021 | 76 | 254 | 6.0 | 14.0 | 0.00 | 0.01 | 0.01 | 40 | 1007.9 |
| 20260505231525 | 76 | 237 | 4.0 | 13.0 | 0.00 | 0.01 | 0.01 | 40 | 1007.9 |
| 20260505224512 | 78 | 234 | 7.0 | 18.0 | 0.00 | 0.01 | 0.01 | 36 | 1007.6 |
| 20260505223018 | 79 | 216 | 9.0 | 17.0 | 0.00 | 0.01 | 0.01 | 1007.6 | |
| 20260505220011 | 79 | 254 | 10.0 | 20.0 | 0.00 | 0.01 | 0.01 | 36 | 1007.5 |
| 20260505213021 | 80 | 201 | 5.0 | 13.0 | 0.00 | 0.01 | 0.01 | 37 | 1007.5 |
| 20260505210025 | 80 | 210 | 7.0 | 16.0 | 0.00 | 0.01 | 0.01 | 36 | 1007.3 |
| 20260505204510 | 81 | 200 | 9.0 | 18.0 | 0.00 | 0.01 | 0.01 | 35 | 1007.3 |